Vorticity
nan nan nan nan nan nan nan nan nan nan nan nan nan nan nan nan nan nan nan nan nan nan nan nan nan nan nan nan nan nan nan nan nan nan nan nan nan nan nan nan nan nan nan nan nan nan nan nan nan
nan 10 9 8 5 3 7 14 5 8 7 5 4 5 8 9 6 8 6 11 13 7 5 6 7 5 6 6 7 6 6 5 5 5 5 5 4 4 4 4 4 4 4 5 4 3 4 5 nan
nan 8 6 11 2 2 4 3 5 6 4 6 5 7 8 4 6 9 5 6 11 13 8 7 8 6 6 6 6 6 6 6 6 6 5 5 5 4 4 4 4 4 5 5 5 5 5 5 nan
nan 6 7 7 3 4 1 -1 9 3 5 6 6 3 8 8 10 9 5 3 6 16 16 8 6 5 6 6 6 6 6 6 7 7 6 5 5 5 5 4 4 4 4 5 6 6 6 6 nan
nan 9 8 4 7 6 4 9 8 7 6 3 5 5 4 10 10 6 6 5 5 9 13 12 7 6 6 6 6 6 7 7 6 6 6 6 6 5 5 5 5 5 5 6 5 5 5 5 nan
nan 8 5 6 5 3 7 11 11 8 3 5 8 10 8 8 5 7 6 7 5 6 8 10 8 7 6 6 5 7 7 7 7 6 6 6 6 6 6 5 5 5 6 6 5 6 7 6 nan
nan 5 5 4 3 4 5 8 15 9 5 10 9 9 7 4 5 4 7 7 7 6 6 6 7 7 7 7 7 7 8 7 7 6 6 6 6 6 6 6 6 5 5 6 6 6 7 6 nan
nan 4 4 6 7 7 5 13 10 4 8 7 7 7 4 4 5 3 5 9 12 5 7 6 6 6 6 9 9 7 7 7 7 7 7 7 7 6 6 6 7 6 5 6 6 7 7 7 nan
nan 8 7 7 4 2 -2 10 9 8 7 6 6 6 8 4 1 4 6 11 9 7 7 7 7 7 7 7 9 8 7 7 7 8 7 4 6 9 8 8 8 7 6 6 6 7 6 8 nan
nan 2 7 3 -1 -1 4 2 6 8 5 8 5 4 7 7 6 5 3 6 6 11 7 7 8 8 8 5 7 6 6 6 7 8 7 6 7 8 8 9 9 8 7 7 7 7 7 5 nan
nan 1 2 1 3 4 2 2 6 6 9 10 7 8 10 8 5 6 5 6 8 10 8 8 8 9 4 5 7 7 8 7 8 8 7 7 7 7 7 8 9 10 8 6 8 6 8 7 nan
nan 8 7 9 9 9 5 9 7 4 6 3 6 8 8 8 8 6 4 4 8 14 15 10 8 6 5 8 7 7 8 7 8 8 6 5 7 8 7 7 9 7 9 8 5 6 8 7 nan
nan 4 1 6 7 7 9 8 11 9 7 5 5 6 10 8 7 8 6 7 12 13 9 10 11 10 12 10 7 7 7 7 8 10 7 5 6 6 7 8 8 7 7 8 7 7 8 8 nan
nan 7 7 7 8 8 8 2 8 9 7 7 5 7 11 11 9 4 10 13 10 7 8 6 6 8 10 10 11 12 8 7 7 8 10 6 5 7 5 7 9 8 7 8 8 7 7 8 nan
nan 9 15 19 13 7 9 3 10 8 10 5 4 8 9 12 9 9 10 9 8 6 6 8 7 6 7 7 9 10 10 11 9 8 11 8 6 8 7 7 8 9 9 8 7 7 8 8 nan
nan 8 12 6 5 5 7 7 11 15 9 6 7 10 11 12 11 9 8 7 7 8 8 7 7 8 7 8 8 7 8 9 9 11 11 11 8 4 6 7 8 10 11 8 7 7 7 9 nan
nan 8 4 2 14 13 5 10 -1 6 17 19 12 13 12 8 10 8 8 8 7 7 7 8 7 6 8 10 9 10 11 11 9 9 12 12 9 7 5 4 7 8 9 11 8 8 9 7 nan
nan 4 2 8 6 9 7 13 14 6 5 18 21 16 11 15 7 8 7 6 7 6 6 7 6 5 9 10 10 10 8 7 9 10 10 11 13 10 5 7 5 5 5 6 11 9 7 9 nan
nan 1 1 5 7 10 11 8 4 3 9 10 15 14 11 14 10 6 5 6 6 5 6 7 7 8 9 9 8 8 9 8 7 7 5 8 14 15 7 7 8 6 7 6 5 8 7 7 nan
nan 7 5 7 9 8 11 9 4 6 10 5 14 9 11 9 5 6 6 7 7 7 6 7 7 9 9 9 10 8 8 9 8 9 10 9 8 10 13 8 8 8 8 9 10 6 4 11 nan
nan 11 13 13 13 8 18 13 9 13 9 11 11 14 24 9 3 2 6 8 6 7 8 7 7 8 8 8 11 10 9 8 8 6 7 7 6 10 16 13 7 8 9 8 7 8 8 8 nan
nan 16 8 14 17 11 6 16 9 17 10 21 12 18 22 7 7 7 8 6 8 7 7 6 7 7 7 10 9 10 9 7 8 7 6 5 7 8 7 17 17 6 8 10 8 5 11 10 nan
nan 11 9 9 6 9 4 9 9 10 14 11 23 23 5 7 6 7 7 6 7 7 6 6 7 8 8 10 9 8 8 9 8 7 7 10 11 10 9 10 19 13 6 10 9 7 10 6 nan
nan 8 7 9 13 10 16 7 8 7 7 7 23 19 8 5 5 6 6 5 8 7 7 6 6 8 9 7 8 7 8 10 9 9 11 10 10 10 10 8 14 19 9 8 9 11 8 5 nan
nan 7 9 11 10 10 14 14 11 7 22 30 17 7 6 8 7 5 8 8 7 9 7 7 7 7 8 8 8 9 10 11 10 10 9 9 11 9 8 9 10 16 16 10 9 11 11 9 nan
nan 6 7 5 5 7 13 13 12 19 19 19 13 9 6 8 8 8 8 8 6 8 9 8 5 8 9 9 8 9 13 13 10 8 9 12 9 9 8 10 10 10 12 16 8 6 8 10 nan
nan 7 5 10 10 11 7 9 10 9 11 10 5 3 7 8 7 7 7 8 8 7 7 8 8 8 8 10 10 9 10 10 9 11 12 10 10 11 15 14 10 10 10 7 7 11 11 9 nan
nan 4 8 12 10 10 9 10 -2 10 15 2 8 9 6 4 7 10 6 6 7 9 8 6 7 7 9 11 11 10 9 10 11 12 11 11 11 11 18 19 14 10 9 9 11 10 12 12 nan
nan -1 4 10 8 8 11 11 8 8 5 6 7 8 7 7 6 8 8 8 6 7 8 8 7 8 10 10 10 10 10 10 13 12 11 11 11 13 13 21 20 14 12 10 13 13 9 9 nan
nan nan nan nan nan nan nan nan nan nan nan nan nan nan nan nan nan nan nan nan nan nan nan nan nan nan nan nan nan nan nan nan nan nan nan nan nan nan nan nan nan nan nan nan nan nan nan nan nan
CAPE
0 0 0 0 0 0 0 0 0 0 0 0 0 0 0 0 0 0 0 133 1629 1523 1655 1626 1778 2028 2201 2180 1896 1866 2080 2225 2203 2200 2201 2243 2198 2208 2196 2121 2300 2631 2810 2514 2348 2228 2156 2303 2180
0 0 0 0 0 0 0 0 0 0 0 0 0 0 0 0 0 0 0 2 1593 1643 1513 1593 1641 1890 2073 2163 2120 1956 2268 2361 2289 2313 2320 2332 2273 2297 2298 2184 2216 2637 2990 2851 2334 2234 2404 2408 2126
0 0 0 0 0 0 0 0 0 0 0 0 0 0 0 0 0 0 0 424 1113 2395 1620 1649 1570 1757 1905 2022 2150 2135 2176 2223 2227 2294 2452 2417 2356 2430 2434 2218 2293 2668 3202 3091 2414 2610 2721 2270 2080
0 0 0 0 0 0 0 0 0 0 0 0 0 0 0 0 0 0 19 849 1323 2085 1902 1423 1516 1686 1788 1906 2053 2172 2192 2093 2091 2213 2448 2495 2446 2483 2435 2183 2392 2775 3019 3080 3326 2814 2343 2180 2051
0 0 0 0 0 0 0 0 0 0 0 0 0 0 0 0 0 0 107 1186 1364 2290 1865 1352 1404 1629 1748 1912 2046 2121 2162 2086 2070 2197 2344 2427 2439 2410 2264 2132 2350 2582 2905 2995 2829 2452 2363 2044 1682
0 0 0 0 0 0 0 0 0 0 0 0 0 0 0 0 0 0 0 1169 1648 2543 2061 1438 1440 1587 1666 1760 1936 2108 2146 2082 2020 2132 2287 2411 2345 2233 2116 2044 2208 2392 2694 2677 2411 2384 2154 1813 1482
0 0 0 0 0 0 0 0 0 0 0 0 0 0 0 0 0 0 0 14 1891 2511 2035 1603 1612 1591 1547 1616 1704 1975 2067 2079 2020 2062 2204 2372 2280 2168 2072 2026 2122 2295 2415 2425 2307 2274 1944 1411 1242
0 0 0 0 0 0 0 0 0 0 0 0 0 0 0 0 0 0 0 0 2149 2347 2348 1823 1640 1447 1320 1279 1464 1653 1902 2003 2042 2044 2126 2262 2200 2105 2077 1975 2028 2237 2290 2348 2165 2057 1886 1347 1115
0 0 0 0 0 0 0 0 0 0 0 0 0 0 0 0 0 0 0 0 434 2237 2160 2488 2125 1737 1420 1291 1241 1357 1595 1802 1977 2041 2050 1841 1950 1979 2000 1884 1881 2095 2138 2176 2098 1995 1811 1411 1061
0 0 0 0 0 0 0 0 0 0 0 0 0 0 0 0 0 0 0 0 0 1509 2027 1919 2370 2108 1876 1982 1355 1079 1251 1264 1426 1716 1703 1915 1995 1958 2145 1891 1748 1840 1937 1934 1860 1803 1566 1227 864
0 0 0 0 0 0 0 0 0 0 0 0 0 0 0 0 0 0 0 0 0 1170 2325 2125 2246 2220 2328 2250 1363 1215 1172 1084 1133 1334 1535 1815 2123 2107 1985 1863 1660 1460 1688 1599 1441 1384 1119 1002 936
0 0 0 0 0 0 0 0 0 0 0 0 0 0 0 0 0 0 0 0 0 0 1524 2402 2178 1873 1755 1757 2216 1734 1464 1186 1239 1227 1389 1530 1640 1687 2029 1807 1643 1524 1596 1536 1404 1227 1123 1149 1126
0 0 0 0 0 0 0 0 0 0 0 0 0 0 0 0 0 0 0 0 0 0 0 0 1098 1360 1638 1751 1877 2303 2032 1629 1555 1430 1477 1716 1545 1685 1588 1781 1838 1770 1667 1534 1459 1312 1341 1277 1248
0 0 0 0 0 0 0 0 0 0 0 0 0 0 0 0 0 0 0 0 0 0 0 0 0 0 0 23 484 1363 1523 1582 1800 1772 1647 1763 1849 1655 1713 1633 1527 1855 1849 1658 1567 1349 1407 1404 1305
0 0 0 0 0 0 0 0 0 0 0 0 0 0 0 0 0 0 0 0 0 0 0 0 0 0 0 0 0 0 80 1213 1141 1464 1584 1951 1801 1683 1738 1519 1341 1755 1791 1623 1516 1148 1199 1312 1148
0 0 0 0 0 0 0 0 0 0 0 0 0 0 0 0 0 0 0 0 0 0 0 0 0 0 0 0 0 0 0 0 44 1039 1415 1413 1733 1792 1812 1622 1306 900 1620 1193 1486 1323 1229 1178 1066
0 0 0 0 0 0 0 0 0 0 0 0 0 0 0 0 0 0 0 0 0 0 0 0 0 0 0 0 0 0 0 0 0 0 640 1340 1633 1562 1617 1533 1631 1166 1102 1194 1295 1223 1316 1138 997
0 0 0 0 0 0 0 0 0 0 0 0 0 0 0 0 0 0 0 0 0 0 0 0 0 0 0 0 0 0 0 0 0 0 0 880 1559 1738 1342 1278 1457 1349 1234 1006 1139 1426 1129 1307 1125
0 0 0 0 0 0 0 0 0 0 0 0 0 0 0 0 0 0 0 0 0 0 0 0 0 0 0 0 0 0 0 0 0 0 0 0 283 1421 1564 1459 1406 1541 1529 1313 1078 1194 1268 891 871
0 0 0 0 0 1 0 0 0 0 0 0 0 0 0 2 0 0 0 0 0 0 0 0 0 0 0 0 0 0 0 0 0 0 0 0 0 0 1247 1589 1535 1656 1467 1223 991 1084 895 704 817
0 2 0 0 0 0 0 0 0 0 0 0 0 0 0 0 0 0 0 0 0 0 0 0 0 0 0 0 0 0 0 0 0 0 0 0 0 0 0 1121 1495 1618 1374 1264 988 629 633 366 633
0 0 0 0 0 0 0 7 0 0 0 0 1 0 0 0 0 0 0 0 0 0 0 0 0 0 0 0 0 0 0 0 0 0 0 0 0 0 0 15 910 1387 1269 1025 532 0 0 0 241
0 0 0 0 0 1 0 1 0 0 0 0 1 0 0 0 0 0 0 0 0 0 0 0 0 0 0 0 0 0 0 0 0 0 0 0 0 0 0 0 132 733 1066 832 22 0 37 233 421
0 0 0 0 2 3 0 0 0 0 2 0 22 0 0 0 0 0 0 0 0 0 0 0 0 0 0 0 0 0 0 0 1 1 2 2 0 0 0 0 4 611 699 768 432 168 328 459 462
0 0 0 0 9 0 0 0 0 0 22 56 36 0 0 0 0 0 0 0 0 0 0 0 0 0 0 0 1 0 0 1 2 4 5 7 7 3 1 1 0 237 577 586 507 666 689 637 571
0 0 0 0 0 8 0 1 0 66 6 9 13 4 0 0 0 0 0 0 0 0 0 0 0 0 0 2 2 0 0 5 5 9 11 10 8 8 1 3 1 9 411 711 684 700 393 277 624
0 0 0 1 0 0 0 0 11 0 17 29 8 1 0 0 0 0 0 0 0 0 0 0 0 0 0 3 4 2 4 7 7 6 11 14 15 13 7 1 1 0 0 28 474 546 282 130 1
0 0 0 4 2 0 0 23 6 8 6 20 8 1 0 0 0 0 0 0 0 0 0 0 0 6 1 3 3 7 7 9 8 9 12 12 12 13 5 2 0 22 0 19 468 611 464 404 178
0 4 24 16 57 10 3 82 4 1 8 8 3 0 0 0 0 0 0 0 0 0 0 0 0 2 1 2 5 5 5 7 8 11 11 8 10 10 7 2 123 406 475 393 444 572 421 373 221
0 0 9 6 8 7 8 33 12 4 6 7 1 0 0 0 0 0 0 0 0 0 0 2 1 4 5 3 4 6 6 7 7 11 10 9 8 7 6 6 6 473 391 376 505 480 454 381 473